Home > Weather > Mariehamn > Past weeks

Flag for Åland Islands Weather for the Past 2 Weeks in Mariehamn, Åland Islands

Now
37 °F

Fog.


Feels Like: 29 °F
Forecast: 36 / 38 °F
Wind: 14 mph from South

Location: Helsinki-Vantaa

Current Time: Feb 7, 2016 at 1:19:22 PM

Latest Report: Feb 7, 2016 at 12:50 PM


Visibility: 1 mi

Pressure: 29.65 "Hg

Humidity: 100%

Dew point: 37 °F

Location of MariehamnLocation

Historic Weather in Mariehamn — Graph

°F

Mariehamn Temperature Yesterday

Maximum temperature yesterday: 34 °F (at 8:50 PM)
Minimum temperature yesterday: 18 °F (at 7:20 AM)
Average temperature yesterday: 27 °F

High & Low Weather Summary for the Past Weeks

 TemperatureHumidityPressure
High41 °F (Jan 30, 2:20 AM)100% (Jan 23, 11:20 AM)30.33 "Hg (Jan 23, 11:20 AM)
Low18 °F (Feb 6, 7:20 AM)69% (Feb 5, 2:50 PM)28.71 "Hg (Feb 2, 7:20 AM)
Average32 °F93%29.46 "Hg
* Reported Jan 23 11:20 AM — Feb 7 11:50 AM, Mariehamn, Weather by CustomWeather, © 2016

Note: Actual official high and low records may vary slightly from our data, if they occured in-between our weather recording intervals... More about our weather records

Advertising

Mariehamn Weather History for the Previous 24 Hours

 ConditionsComfort  
Time TempWeatherWind HumidityBarometerVisibility
11:50 AM
Sun, Feb 7
37 °FFog.14 mph100%29.65 "Hg1 mi
11:20 AM37 °FChilly.14 mph100%29.65 "Hg0 mi
10:50 AM37 °FChilly.13 mph100%29.65 "Hg0 mi
10:20 AM37 °FDrizzle. Fog.13 mph100%29.65 "Hg0 mi
9:50 AM37 °FDrizzle. Fog.13 mph100%29.65 "Hg0 mi
9:20 AM36 °FDrizzle. Fog.12 mph100%29.65 "Hg0 mi
8:50 AM37 °FDrizzle. Fog.12 mph100%29.65 "Hg0 mi
8:20 AM36 °FDrizzle. Fog.15 mph100%29.65 "Hg1 mi
7:50 AM36 °FDrizzle. Fog.16 mph100%29.65 "Hg1 mi
7:20 AM36 °FDrizzle. Fog.17 mph100%29.65 "Hg1 mi
6:50 AM36 °FDrizzle. Fog.16 mph100%29.65 "Hg1 mi
6:20 AM37 °FDrizzle. Fog.16 mph100%29.65 "Hg2 mi
5:50 AM37 °FDrizzle. Fog.15 mph100%29.65 "Hg2 mi
5:20 AM36 °FDrizzle. Fog.16 mph100%29.65 "Hg1 mi
4:50 AM37 °FDrizzle. Fog.14 mph100%29.65 "Hg1 mi
4:20 AM37 °FDrizzle. Fog.15 mph100%29.65 "Hg1 mi
3:50 AM37 °FDrizzle. Fog.16 mph100%29.65 "Hg1 mi
3:20 AM37 °FDrizzle. Fog.15 mph100%29.65 "Hg1 mi
2:50 AM36 °FDrizzle. Fog.14 mph100%29.65 "Hg2 mi
1:50 AM36 °FDrizzle. Fog.14 mph100%29.65 "Hg1 mi
12:50 AM36 °FLight rain. Passing clouds.14 mph100%29.68 "Hg4 mi
12:20 AM36 °FLight rain. Passing clouds.14 mph100%29.68 "Hg4 mi
10:50 PM
Sat, Feb 6
34 °FLight rain. Fog.16 mph100%29.68 "Hg2 mi
10:20 PM34 °FDrizzle. Fog.18 mph100%29.68 "Hg2 mi
9:50 PM34 °FPassing clouds.16 mph100%29.68 "Hg3 mi
9:20 PM34 °FLight rain. Passing clouds.14 mph100%29.71 "Hg5 mi
8:50 PM34 °FLight rain. Partly cloudy.14 mph93%29.71 "Hg5 mi
7:50 PM32 °FLight rain. Passing clouds.15 mph100%29.74 "HgN/A
7:20 PM32 °FLight snow. Passing clouds.15 mph100%29.74 "Hg5 mi
6:50 PM32 °FLight snow. Passing clouds.18 mph100%29.77 "Hg2 mi
6:20 PM32 °FLight snow. Passing clouds.20 mph93%29.77 "Hg1 mi
5:50 PM32 °FLight snow. Passing clouds.18 mph93%29.77 "Hg2 mi
5:20 PM32 °FLight snow. Passing clouds.16 mph93%29.80 "Hg1 mi
4:50 PM32 °FLight snow. Passing clouds.16 mph93%29.80 "Hg1 mi
4:20 PM32 °FLight snow. Partly sunny.16 mph93%29.80 "Hg1 mi
3:50 PM32 °FLight snow. Partly sunny.17 mph93%29.83 "Hg1 mi
3:20 PM32 °FSnow. Low clouds.14 mph93%29.83 "Hg1 mi
2:50 PM32 °FLight snow. Overcast.13 mph87%29.86 "Hg2 mi
2:20 PM32 °FLight snow. Overcast.14 mph87%29.86 "Hg4 mi
1:50 PM32 °FLight snow. Partly sunny.13 mph87%29.89 "HgN/A
1:20 PM32 °FBroken clouds.12 mph87%29.89 "HgN/A
Weather by CustomWeather, © 2016

See weather overviewHow to use our weather pages